Weather Roundup
Issued by NWS Chicago, IL

Home | Current Version | Previous Version | Graphics & Text | Print | Product List | Glossary On
Versions: 1 2 3 4 5 6 7 8 9 10 11 12 13 14 15 16 17 18 19 20 21 22 23 24 25 26 27 28 29 30 31 32 33 34 35 36 37 38 39 40 41 42 43 44 45 46 47 48 49 50
000
NZUS59 KLOT 252309
HRRLOT

CHICAGO AREA WEATHER ROUNDUP
NATIONAL WEATHER SERVICE CHICAGO/ROMEOVILLE IL
600 PM CDT TUE JUL 25 2017

NOTE: "FAIR" INDICATES FEW OR NO CLOUDS BELOW 12,000 FEET WITH NO
SIGNIFICANT WEATHER AND/OR OBSTRUCTIONS TO VISIBILITY.

* THESE STATIONS ARE NOT UNDER NWS QUALITY CONTROL. THEY ALSO MAY NOT
  REPORT WEATHER SUCH AS PRECIPITATION OR FOG.

ILZ005-006-012>014-019>023-260000-
NORTHEAST ILLINOIS

CITY           SKY/WX    TMP DP  RH WIND       PRES   REMARKS
OHARE          CLOUDY    78  56  46 SE16      30.12F
MIDWAY         PTSUNNY   79  58  48 E14       30.12F HX  80
AURORA         PTSUNNY   79  61  53 SE12      30.13F HX  80
LANSING*       MOSUNNY   78  56  46 SE8       30.15S
JOLIET*        SUNNY     78  61  56 SE8       30.14S HX  80
WAUKEGAN       CLOUDY    73  61  65 S9        30.13R
DUPAGE AIRPORT MOSUNNY   79  63  57 S10       30.12F HX  80
WHEELING       MOSUNNY   76  58  53 SE10      30.14F
MORRIS*        MOSUNNY   77  62  59 SE8       30.12S
LEWIS AIRPORT* MOSUNNY   77  57  49 S12       30.13F
NORTHERLY ISL    N/A     73  61  65 E10         N/A
$$

WIZ051-052-058>065-066-070>072-260000-
SOUTHEAST WISCONSIN

CITY           SKY/WX    TMP DP  RH WIND       PRES   REMARKS
MILWAUKEE      CLOUDY    75  60  59 S15       30.12F
KENOSHA*       MOSUNNY   74  59  59 SE15      30.13F
RACINE*        MOSUNNY   73  61  65 S12       30.15S
WAUKESHA       SUNNY     73  61  64 SE12      30.13F
WEST BEND      CLOUDY    73  61  64 S6        30.13R
$$

INZ001>003-010>013-019-020-260000-
NORTHWEST INDIANA

CITY           SKY/WX    TMP DP  RH WIND       PRES   REMARKS
GARY*          PTSUNNY   79  52  38 SE10      30.15F
MICHIGAN CITY* NOT AVBL
RENSSELAER*    NOT AVBL
VALPARAISO     CLOUDY    78  58  49 SE8       30.17F
$$

LMZ740>746-260000-
SOUTHERN LAKE MICHIGAN

STATION/POSITION TIME  SKY/WX   TEMP WIND        PRES    VSBY
                                AIR  DIR/SP/G
                 (UTC)          (F)  (DEG/KT/KT) (MB)    (MI)
HARRISON CRIB    2240            74  100/ 15/ 17   N/A
BURNHAM HARBOR   2300            74                N/A
CALUMET HARBOR   2248            74   70/ 11/ 13 1020.1F
BURNS HARBOR     2300            77  130/  5/ 14 1021.3
MICHIGAN CITY    2240            77  120/  9/ 11   N/A
$$

ABBREVIATIONS USED IN REMARKS
   TC - TEMPERATURE IN CELSIUS
  WCI - WIND CHILL INDEX
   HX - HEAT INDEX
  VSB - VISIBILITY
$$




USA.gov is the U.S. government's official web portal to all federal, state and local government web resources and services.